OPS 4682 DEB, 38407

Orbit data source: Space-Track

OPS 4682 DEB, 38407 is space debris in LEO originally from a launch on Sat, 03 Apr 1965 UTC launched from the Air Force Western Test Range (AFWTR). Debris objects in space refer to the collection of defunct objects orbiting the Earth. Examples of debris include non-operational satellites, rocket bodies, and fragments generated from explosions, collisions, or faulty payload assembly.

Loading next visibility...
Identifier
38407, 1965-027DL
Orbit
LEO
Country
Flag of USUS
Related business
Manufacturer
Unknown
Mission
Spacecraft
Bus & Motor
Unknown
Mass
Unknown
Launch date (UTC)
1965-04-03 (61 years ago)
Launch vehicle
Unknown
Launch site
Air Force Western Test Range (AFWTR)
Object type
Payload
Rocket body
Debris
Shape & HBR
Unknown shape, 0.1 m
Radar Cross Section
Small (<0.1 m²)

Expand to show TLE details & history
Last TLE update: 4 days ago

TLE from 4 days ago
0 OPS 4682 DEB
1 38407U 65027DL  25304.91535845  .00001091  00000-0  37593-2 0  9996
2 38407  90.2420   2.4170 0027907  18.4516 341.7610 12.96854697271688
Epoch: 2025-10-31T21:58Z
TLE epoch observation values (Epoch: 2025-10-31T21:58:06.970Z)
Latitude
-0°
Longitude
-7.56498°
Altitude
1,257.033 km
Speed
7.236 km/s
True Right ascension
00h 09m 40s
True Declination
0° 00' 00"
Sunlit
Object was in full shadow at epoch
Visualization orbit readout
Latitude
Unknown
Longitude
Unknown
Altitude
Unknown
Speed
Unknown
Apparent Right ascension
Unknown
Apparent Declination
Unknown
Sunlit
N/A
Visualization observer readout
Local Sidereal Time
06:37:28
Azimuth
Unknown
Elevation
Unknown
Doppler factor
Unknown
Orbital elements
Apogee altitude
1,292.915 km
Perigee altitude
1,250.219 km
Semi-major axis
7,649.704 km
Eccentricity
0.00279
Inclination
90.242°
RAAN
2.417°
Arg. of periapsis
18.4516°
True anomaly
341.66058°
Mean anomaly
341.761°
Eccentric anomaly
341.71082°
Mean motion
3.24397 °/min
Orbital period
110.98 mins
BSTAR
0.0037593
Loading maneuver chart data...
Computing Atmospheric mass density...
Loading historical data...
Loading historical data...
Loading historical data...
Loading historical data...
Loading historical data...
Loading historical data...
Loading historical data...

Documentation

Showing up to 5 results
|